| time (UTC) | temp F | wind direction | speed MPH | gust MPH | rain 1hr in | rain 24hr in | rain mn in | humidity % | barometer mb |
| 20260505013110 | 75 | 145 | 1.0 | 6.0 | 0.00 | 0.00 | 0.00 | 80 | 1010.5 |
| 20260505011600 | 76 | 150 | 2.0 | 6.0 | 0.00 | 0.00 | 0.00 | 80 | 1010.6 |
| 20260505011501 | 76 | 108 | 2.0 | 6.0 | 0.00 | 0.00 | 0.00 | 79 | 1010.6 |
| 20260505010003 | 76 | 177 | 2.0 | 5.0 | 0.00 | 0.00 | 0.00 | 79 | 1010.6 |
| 20260505004600 | 77 | 150 | 1.0 | 5.0 | 0.00 | 0.00 | 0.00 | 78 | 1010.7 |
| 20260505003100 | 77 | 161 | 4.0 | 11.0 | 0.00 | 0.00 | 0.00 | 77 | 1010.5 |
| 20260505001606 | 78 | 121 | 3.0 | 10.0 | 0.00 | 0.00 | 0.00 | 76 | 1010.3 |
| 20260505000116 | 78 | 144 | 2.0 | 9.0 | 0.00 | 0.00 | 0.00 | 76 | 1010.4 |
| 20260505000007 | 78 | 179 | 2.0 | 9.0 | 0.00 | 0.00 | 0.00 | 76 | 1010.4 |
| 20260504234559 | 79 | 72 | 0.0 | 4.0 | 0.00 | 0.00 | 0.00 | 77 | 1010.5 |
| 20260504233102 | 78 | 184 | 3.0 | 9.0 | 0.00 | 0.00 | 0.00 | 74 | 1010.6 |
| 20260504231559 | 78 | 200 | 2.0 | 7.0 | 0.00 | 0.00 | 0.00 | 75 | 1010.8 |
| 20260504230108 | 79 | 96 | 2.0 | 7.0 | 0.00 | 0.00 | 0.00 | 74 | 1011.0 |
| 20260504230002 | 79 | 101 | 2.0 | 7.0 | 0.00 | 0.00 | 0.00 | 74 | 1011.0 |
| 20260504224559 | 79 | 173 | 3.0 | 8.0 | 0.00 | 0.00 | 0.00 | 74 | 1011.1 |
| 20260504223105 | 79 | 211 | 4.0 | 9.0 | 0.00 | 0.00 | 0.00 | 73 | 1011.1 |
| 20260504221606 | 80 | 185 | 2.0 | 9.0 | 0.00 | 0.00 | 0.00 | 74 | 1011.2 |
| 20260504220103 | 79 | 236 | 3.0 | 10.0 | 0.00 | 0.00 | 0.00 | 74 | 1011.5 |
| 20260504220002 | 79 | 180 | 2.0 | 10.0 | 0.00 | 0.00 | 0.00 | 74 | 1011.5 |
| 20260504214601 | 79 | 130 | 4.0 | 9.0 | 0.00 | 0.00 | 0.00 | 73 | 1011.7 |
| 20260504213105 | 80 | 183 | 3.0 | 12.0 | 0.00 | 0.00 | 0.00 | 72 | 1011.7 |
| 20260504211609 | 80 | 198 | 3.0 | 10.0 | 0.00 | 0.00 | 0.00 | 71 | 1012.0 |
| 20260504210059 | 81 | 148 | 2.0 | 11.0 | 0.00 | 0.00 | 0.00 | 69 | 1012.0 |
| 20260504204603 | 81 | 131 | 4.0 | 8.0 | 0.00 | 0.00 | 0.00 | 69 | 1012.3 |
| 20260504203110 | 81 | 178 | 3.0 | 8.0 | 0.00 | 0.00 | 0.00 | 69 | 1012.2 |
| 20260504201601 | 81 | 117 | 4.0 | 10.0 | 0.00 | 0.00 | 0.00 | 70 | 1012.7 |
| 20260504200059 | 81 | 184 | 3.0 | 7.0 | 0.00 | 0.00 | 0.00 | 68 | 1013.0 |
| 20260504194559 | 80 | 165 | 3.0 | 9.0 | 0.00 | 0.00 | 0.00 | 69 | 1013.2 |
| 20260504193100 | 81 | 327.0 | 255.0 | 0.00 | 0.00 | 0.00 | 69 | 1013.4 | |
| 20260504193003 | 81 | 327.0 | 255.0 | 0.00 | 0.00 | 0.00 | 69 | 1013.4 | |
| 20260504191610 | 81 | 174 | 3.0 | 8.0 | 0.00 | 0.00 | 0.00 | 69 | 1013.6 |
| 20260504190121 | 81 | 175 | 4.0 | 8.0 | 0.00 | 0.00 | 0.00 | 69 | 1013.6 |
| 20260504190002 | 81 | 216 | 4.0 | 8.0 | 0.00 | 0.00 | 0.00 | 70 | 1013.7 |
| 20260504184605 | 80 | 209 | 4.0 | 14.0 | 0.00 | 0.00 | 0.00 | 69 | 1014.0 |
| 20260504183107 | 80 | 167 | 3.0 | 9.0 | 0.00 | 0.00 | 0.00 | 69 | 1014.1 |
| 20260504181601 | 80 | 120 | 2.0 | 10.0 | 0.00 | 0.00 | 0.00 | 69 | 1014.2 |
| 20260504180117 | 80 | 207 | 5.0 | 11.0 | 0.00 | 0.00 | 0.00 | 69 | 1014.1 |
| 20260504174600 | 80 | 192 | 3.0 | 12.0 | 0.00 | 0.00 | 0.00 | 69 | 1014.7 |
| 20260504173100 | 79 | 173 | 3.0 | 10.0 | 0.00 | 0.00 | 0.00 | 69 | 1014.7 |
| 20260504171600 | 79 | 196 | 2.0 | 10.0 | 0.00 | 0.00 | 0.00 | 73 | 1015.0 |
| 20260504160107 | 76 | 169 | 3.0 | 9.0 | 0.00 | 0.00 | 0.00 | 72 | 1016.0 |
| 20260504140107 | 70 | 175 | 0.0 | 3.0 | 0.00 | 0.00 | 0.00 | 78 | 1016.3 |
| 20260504100103 | 61 | 155 | 0.0 | 0.0 | 0.00 | 0.00 | 0.00 | 84 | 1015.9 |
| 20260504081559 | 62 | 155 | 0.0 | 1.0 | 0.00 | 0.00 | 0.00 | 83 | 1016.3 |
| 20260504050104 | 65 | 157 | 0.0 | 2.0 | 0.00 | 0.00 | 0.00 | 77 | 1018.7 |
| 20260504050005 | 65 | 157 | 0.0 | 2.0 | 0.00 | 0.00 | 0.00 | 76 | 1018.7 |
| 20260504044601 | 65 | 157 | 0.0 | 2.0 | 0.00 | 0.00 | 0.00 | 76 | 1018.8 |
| 20260504043058 | 66 | 157 | 0.0 | 2.0 | 0.00 | 0.00 | 0.00 | 74 | 1018.8 |
| 20260504041602 | 66 | 157 | 0.0 | 2.0 | 0.00 | 0.00 | 0.00 | 73 | 1018.8 |
| 20260504040057 | 67 | 157 | 0.0 | 2.0 | 0.00 | 0.00 | 0.00 | 72 | 1018.8 |
| 20260504034558 | 67 | 156 | 0.0 | 2.0 | 0.00 | 0.00 | 0.00 | 71 | 1018.7 |
| 20260504033058 | 68 | 159 | 0.0 | 1.0 | 0.00 | 0.00 | 0.00 | 70 | 1018.7 |
| 20260504031558 | 68 | 152 | 0.0 | 3.0 | 0.00 | 0.00 | 0.00 | 69 | 1018.7 |
| 20260504024615 | 69 | 121 | 1.0 | 5.0 | 0.00 | 0.00 | 0.00 | 66 | 1018.6 |
| 20260504023058 | 70 | 140 | 0.0 | 3.0 | 0.00 | 0.00 | 0.00 | 66 | 1018.5 |
| 20260504021559 | 70 | 132 | 0.0 | 2.0 | 0.00 | 0.00 | 0.00 | 64 | 1018.4 |
| 20260504020058 | 71 | 152 | 0.0 | 4.0 | 0.00 | 0.00 | 0.00 | 63 | 1018.4 |
| 20260504014605 | 72 | 213 | 0.0 | 3.0 | 0.00 | 0.00 | 0.00 | 62 | 1018.1 |